Location: Natural Bridges National Monument
(37.6093°N, 109.9767°W)
Time: 05:17:05
(UTC-07:00)

USA 32 - Visible Passes

Search period start: 21 November 2017 00:00
Search period end: 01 December 2017 00:00
Orbit: 776 x 784 km, 85.0° (Epoch: 19 November)

Date Brightness Start Highest point End Pass type
(mag) Time Alt. Az. Time Alt. Az. Time Alt. Az.
21 Nov 3.9 05:11:26 10° S 05:16:39 88° W 05:21:54 10° N visible
21 Nov 6.2 17:24:56 10° NNW 17:29:28 30° W 17:33:59 10° SW visible
22 Nov 4.8 04:38:54 10° SSE 04:43:54 50° E 04:48:57 10° NNE visible
22 Nov 5.4 06:21:52 10° WSW 06:25:09 17° WNW 06:28:27 10° NW visible
23 Nov 5.9 04:06:55 10° SE 04:11:16 28° E 04:15:38 10° NNE visible
23 Nov 4.7 05:47:33 10° SW 05:52:05 30° W 05:56:39 10° NNW visible
24 Nov 6.7 03:35:49 10° ESE 03:38:44 15° E 03:41:40 10° NE visible
24 Nov 4.0 05:14:03 10° SSW 05:19:08 54° W 05:24:17 10° N visible
24 Nov 6.8 17:28:07 10° NW 17:31:44 19° W 17:35:19 10° SW visible
25 Nov 5.3 04:41:06 10° S 04:49:04 29° N 04:51:34 10° N visible
26 Nov6.704:18:42NNE04:18:42NNE04:07:46SSEvisible
26 Nov6.405:59:20NNW05:59:20NNW05:48:07SWvisible
27 Nov 7.1 17:32:16 10° WNW 17:33:55 11° W 17:35:34 10° W visible
